Location: Toronto
(43.6672°N, 79.4170°W)
Time: 04:41:21
(UTC-04:00)

Daily predictions for brighter satellites

Satellite Brightness Start Highest point End
(mag) Time Altitude Azimuth Time Altitude Azimuth Time Altitude Azimuth
ATLAS 2AS CENTAUR R/B 4.1 02:33:48 38° NE 02:33:48 38° NE 02:38:27 10° NE
SL-16 R/B 4.5 02:35:42 23° NE 02:35:42 23° NE 02:39:36 10° N
Cosmos 2333 Rocket 4.4 03:04:53 10° N 03:09:16 22° NE 03:13:35 10° E
Cosmos 2237 Rocket 4.1 03:29:47 10° N 03:34:30 26° NE 03:39:11 10° ESE
Lacrosse 5 4.3 03:38:47 16° E 03:38:47 16° E 03:40:27 10° ENE
ATLAS 5 CENTAUR R/B 3.7 03:37:21 24° N 03:40:07 35° NE 03:45:52 10° ESE
Cosmos 2219 4.3 03:52:28 40° NNE 03:52:28 40° NNE 03:55:58 10° NNE
ARIANE 5 R/B 4.1 03:47:13 10° NNE 03:49:50 30° NNE 03:49:50 30° NNE
NOSS 3-4 (A) 4.4 04:00:48 39° SE 04:01:11 39° ESE 04:07:09 10° NE
NOSS 3-4 (C) 4.4 04:00:53 38° SE 04:01:18 39° ESE 04:07:14 10° NE
Gbstr 26 Del rocket 4.5 04:03:06 64° SE 04:03:06 64° SE 04:09:45 10° SE
Cosmos 2344 3.6 04:06:57 67° S 04:07:54 75° ESE 04:16:37 10° NE
Cosmos 2227 Rocket 3.4 04:07:45 33° ESE 04:08:28 34° ESE 04:13:31 10° NE
CZ-2D R/B 3.0 04:04:17 10° NNE 04:07:50 44° NNE 04:07:50 44° NNE
Cosmos 2219 Rocket 4.0 04:07:40 10° NNW 04:20:31 - SSE 04:09:24 20° NNW
SL-16 R/B 3.6 04:20:48 32° NNW 04:20:48 32° NNW 04:24:07 10° NNW
Cosmos 2297 Rocket 3.8 04:15:57 23° SE 04:17:55 29° ESE 04:22:43 10° NE
ATLAS 2AS CENTAUR R/B 3.8 04:21:15 36° NW 04:22:04 37° NW 04:29:33 10° NNE
NOSS 0 Rocket 3.9 04:22:33 10° NNW 04:28:50 84° ENE 04:35:05 10° SSE
Cosmos 1821 Rocket 4.4 04:24:19 10° NNW 04:29:13 51° NW 04:29:13 51° NW
MOS 1-B 4.2 04:26:00 10° NNE 04:31:50 82° ESE 04:32:13 77° SSE
Cosmos 1934 Rocket 3.9 04:26:30 10° N 04:32:19 72° NW 04:32:19 72° NW
Resurs 1-4 Rocket 2.7 04:30:13 10° N 04:34:08 46° NNW 04:34:08 46° NNW
Cosmos 1605 Rocket 3.9 04:29:34 10° N 04:35:45 82° E 04:39:10 29° SSE
Cosmos 968 Rocket 4.3 04:37:40 39° NNW 04:37:40 39° NNW 04:41:14 10° NNE
BREEZE-M DEB (TANK) 4.1 04:41:55 41° SE 04:41:55 41° SE 04:44:28 10° ENE
Cosmos 2082 3.9 04:46:49 47° S 04:48:20 66° ESE 04:53:55 10° NNE
NOSS 3-2 (A) 3.8 04:41:40 10° NW 04:49:08 74° WSW 04:57:11 10° SSE
CZ-4B R/B 3.9 04:47:21 10° NNE 04:51:37 48° E 04:53:24 31° SSE
Cosmos 923 Rocket 3.9 04:46:28 10° NNW 04:51:50 76° WSW 04:57:09 10° SSE
Cosmos 1025 Rocket 3.7 04:51:03 42° SE 04:52:05 53° E 04:56:18 10° NNE
Lacrosse 5 rocket 2.9 04:53:31 29° NNW 04:53:31 29° NNW 04:57:05 10° NNE
Cosmos 2333 Rocket 2.0 04:48:23 10° NNW 04:54:06 69° WSW 04:59:42 10° SSE
BREEZE-M DEB (TANK) 3.6 04:58:54 28° NNE 04:58:54 28° NNE 05:01:10 10° E
Okean O Rocket 1.6 04:55:28 10° NNE 04:59:54 81° ESE 05:00:24 69° S
Cosmos 1606 Rocket 3.8 05:00:50 10° N 05:05:14 66° E 05:09:32 10° SSE
Meteor 1-19 Rocket 4.2 05:04:57 26° S 05:08:17 86° E 05:13:55 10° N
USA 215 4.4 05:05:42 10° S 05:08:45 23° SSW 05:08:45 23° SSW
Cosmos 2100 Rocket 4.2 05:07:29 10° N 05:13:43 71° E 05:19:59 10° SSE
Cosmos 1726 Rocket 3.7 05:11:52 10° N 05:16:17 73° E 05:20:37 10° SSE
CZ-4B R/B 3.1 05:11:13 10° NNE 05:16:39 89° ESE 05:20:48 18° SSW
Cosmos 2237 Rocket 2.2 05:13:23 10° NW 05:18:52 53° WSW 05:24:18 10° S
Cosmos 1666 2.9 05:15:09 10° N 05:19:02 73° E 05:22:51 10° SSE
CZ-2C R/B 3.7 05:17:20 32° SSW 05:19:15 59° W 05:23:50 10° NNW
Lacrosse 5 1.8 05:18:00 48° WSW 05:19:24 80° NW 05:24:29 10° NE
Tiangong 1 1.6 05:23:36 51° SE 05:23:36 51° SE 05:26:11 10° E
Meteor 2-4 Rocket 3.8 05:17:48 10° S 05:23:38 85° E 05:29:36 10° NNE
ATLAS 5 CENTAUR R/B 2.5 05:19:14 10° NW 05:25:08 55° WSW 05:31:26 10° SSE
CENTAUR R/B 3.6 05:17:44 10° NNW 05:25:23 60° NE 05:33:33 10° SE
Okean 1-7 Rocket 4.3 05:26:31 35° WNW 05:26:31 35° WNW 05:30:07 10° N
Cosmos 292 Rocket 3.7 05:21:39 10° NNW 05:26:33 88° WSW 05:31:24 10° SSE
NOSS 3-2 (C) 4.0 05:19:43 10° NW 05:27:02 55° WSW 05:34:50 10° SSE
ADEOS Rocket 3.3 05:19:53 10° NNE 05:27:11 82° ESE 05:33:41 10° SSW
Meteor 1-23 Rocket 4.2 05:22:06 10° S 05:27:43 84° E 05:33:27 10° NNE
Cosmos 220 Rocket 3.9 05:27:01 49° WSW 05:27:47 59° WNW 05:31:58 10° NNE
Cosmos 1892 Rocket 3.6 05:24:41 13° S 05:28:43 83° E 05:33:14 10° N
ARIANE 5 R/B 4.3 05:27:47 10° NNW 05:30:10 16° NW 05:30:10 16° NW
MOZ.5/SAFIR/RUBIN 5/SL-8 4.4 05:31:38 34° W 05:31:38 34° W 05:35:22 10° NNW
Cosmos 1980 4.1 05:27:20 10° NW 05:32:32 38° WSW 05:37:42 10° S
ADEOS II 2.5 05:27:36 10° NNE 05:32:50 64° ESE 05:38:03 10° S
PSLV R/B 3.7 05:30:25 10° NNE 05:34:47 77° ESE 05:39:04 10° S
SL-16 R/B 2.1 05:32:52 10° NNW 05:38:36 83° WSW 05:44:15 10° SSE
Meteor 2-9 Rocket 4.1 05:36:10 10° NNW 05:41:47 71° W 05:47:31 10° S
ASTRO F (AKARI) 4.1 05:39:14 10° S 05:42:21 66° WSW 05:45:36 10° NNW
OE (NEXTSAT) 4.3 05:41:19 41° W 05:42:26 74° SSW 05:46:04 10° ESE
Cosmos 2112 Rocket 4.4 05:40:06 10° NW 05:45:00 39° WSW 05:49:51 10° S
Meteor PRIRODA 4.0 05:42:15 10° NNE 05:45:59 67° E 05:49:40 10° S
Cosmos 1000 Rocket 4.5 05:40:51 10° S 05:47:11 84° W 05:53:33 10° N
RESURS DK-1 2.7 05:46:01 31° WSW 05:47:28 45° WNW 05:51:28 10° NNE
Cosmos 2228 3.0 05:43:37 10° N 05:48:03 86° E 05:52:26 10° S
CZ-2D R/B 3.8 05:46:04 10° NNW 05:48:57 15° WNW 05:49:09 15° WNW
Cosmos 2016 Rocket 4.0 05:43:02 10° N 05:49:25 88° E 05:55:42 10° S
Cosmos 1680 Rocket 4.2 05:44:58 10° NW 05:49:34 30° W 05:54:06 10° SSW
NOSS 3-4 (A) 4.0 05:48:17 23° WSW 05:52:00 46° NW 05:58:20 10° NNE
NOSS 3-4 (C) 4.0 05:48:21 23° WSW 05:52:06 46° NW 05:58:27 10° NNE
Cosmos 2227 Rocket 2.8 05:49:36 23° WSW 05:52:26 38° WNW 05:57:43 10° NNE
Cosmos 1346 Rocket 3.0 05:51:14 21° SW 05:53:33 46° WNW 05:57:26 10° N
Cosmos 2173 Rocket 3.9 05:49:05 10° NNW 05:55:06 62° W 06:01:07 10° S
USA 129 2.2 05:54:51 10° SSE 05:56:45 50° ENE 05:58:30 10° N
Cosmos 2297 Rocket 2.6 05:57:49 18° WSW 06:01:45 44° WNW 06:07:09 10° NNE
Okean-O 2.6 05:58:45 10° N 06:03:11 68° WNW 06:07:34 10° SSW
Cosmos 1459 Rocket 4.1 05:57:12 10° NNW 06:03:22 53° W 06:09:28 10° SSW
Cosmos 2058 Rocket 3.4 06:02:59 10° NNW 06:07:05 41° W 06:11:10 10° SSW
Cosmos 2123 Rocket 4.1 06:01:50 10° S 06:07:59 80° E 06:14:11 10° N
Cosmos 2298 Rocket 4.1 06:06:28 10° SW 06:11:40 58° WNW 06:16:56 10° NNE
CZ-4B R/B 3.8 06:09:57 10° NNE 06:13:56 87° ESE 06:17:43 10° SSW
Aureole 2 Rocket 2.7 06:14:55 10° NW 06:18:14 40° WSW 06:21:14 10° S
EXPRESS MD2 3.6 06:16:24 13° WNW 06:19:25 69° SSW 06:25:59 10° SE
Thor Agena Rocket 4.3 06:15:30 10° SSW 06:20:07 30° W 06:24:46 10° NW
COSMO-SKYMED 1 3.0 06:17:16 10° SSE 06:21:34 67° ENE 06:25:54 10° N
Cosmos 1603 3.8 06:20:08 10° NNW 06:25:54 89° WSW 06:31:36 10° SSE
Cosmos 2150 Rocket 4.2 06:21:16 10° SW 06:26:13 48° WNW 06:31:14 10° N
Meteor 1-31 Rocket 2.9 06:27:42 10° N 06:31:31 53° WNW 06:35:20 10° SSW
Cosmos 990 Rocket 4.0 06:27:30 10° SSW 06:32:45 73° WNW 06:38:01 10° NNE
Ariane Rocket 3.5 06:27:54 10° NNE 06:33:00 67° ESE 06:38:04 10° S
SeaSat 1 3.4 06:28:44 10° SE 06:33:31 53° ENE 06:38:20 10° NNW
Lacrosse 5 rocket 3.7 06:31:02 10° NW 06:33:38 15° N 06:36:11 10° NNE
Intercosmos 25 Rocket 3.5 06:30:58 10° N 06:34:26 86° E 06:39:23 10° S
Okean O Rocket 3.6 06:34:09 10° NW 06:35:36 11° WNW 06:37:04 10° W
Cosmos 2098 Rocket 3.7 06:34:08 10° NNW 06:37:35 32° W 06:41:48 10° SSW
Cosmos 2263 Rocket 4.4 06:34:56 10° SSE 06:39:40 30° ESE 06:44:26 10° NE
Cosmos 1626 Rocket 3.8 06:36:52 10° SSW 06:41:04 45° WNW 06:45:17 10° N
Genesis I 3.5 06:39:28 10° SSW 06:43:26 74° ESE 06:47:26 10° NE
Cosmos 1174 3.3 06:40:40 10° NW 06:43:37 54° WSW 06:46:51 10° SSE
MOS 1 Rocket 3.8 06:40:17 10° N 06:44:47 43° WNW 06:49:32 10° SW
